GW2785 Weather Reports


time (UTC)temp
F
wind
direction
speed
knots
gust
knots
rain 1hr
in
rain 24hr
in
rain mn
in
humidity
%
barometer
mb
20260903010804 78 164 0.0 0.0 0.00 0.00 0.00 95 1012.7
20260903010259 78 164 0.0 0.0 0.00 0.00 0.00 95 1012.6
20260903005757 78 164 0.0 0.0 0.00 0.00 0.00 94 1012.5
20260903005252 79 164 0.0 0.0 0.00 0.00 0.00 92 1012.6
20260903004748 79 164 0.0 0.0 0.00 0.00 0.00 91 1012.4
20260903004244 80 164 0.0 0.0 0.00 0.00 0.00 91 1012.5
20260903003739 80 164 0.0 0.0 0.00 0.00 0.00 89 1012.5
20260903003235 80 164 0.0 0.0 0.00 0.00 0.00 88 1012.3
20260903002729 81 164 0.0 0.0 0.00 0.00 0.00 87 1012.3
20260903002223 81 164 0.0 0.0 0.00 0.00 0.00 86 1012.5
20260903001719 82 164 0.0 0.0 0.00 0.00 0.00 85 1012.3
20260903001212 83 164 0.0 0.0 0.00 0.00 0.00 83 1012.1
20260903000708 83 164 0.0 0.0 0.00 0.00 0.00 83 1012.3
20260903000204 85 164 0.0 0.0 0.00 0.00 0.00 81 1012.3
20260902235700 85 164 0.0 0.0 0.00 0.00 0.00 76 1012.2
20260902235155 87 161 0.0 0.0 0.00 0.00 0.00 76 1012.4
20260902234650 88 161 0.0 0.0 0.00 0.00 0.00 75 1012.3
20260902234149 89 161 0.0 0.0 0.00 0.00 0.00 73 1012.4
20260902233644 89 161 0.0 0.0 0.00 0.00 0.00 68 1012.2
20260902233143 90 159 0.0 0.9 0.00 0.00 0.00 68 1012.3
20260902232642 91 160 0.0 0.0 0.00 0.00 0.00 69 1012.2
20260902232141 91 158 0.9 0.9 0.00 0.00 0.00 67 1012.3
20260902231636 91 161 0.0 0.0 0.00 0.00 0.00 64 1012.1
20260902231131 92 158 0.0 0.0 0.00 0.00 0.00 66 1012.3
20260902230626 92 154 1.7 1.7 0.00 0.00 0.00 64 1012.2
20260902230124 93 159 0.9 0.9 0.00 0.00 0.00 64 1012.4
20260902225620 92 162 0.0 0.0 0.00 0.00 0.00 65 1012.3
20260902225119 93 142 2.6 2.6 0.00 0.00 0.00 62 1012.4
20260902224618 94 159 1.7 2.6 0.00 0.00 0.00 63 1012.4
20260902224114 93 157 0.0 0.9 0.00 0.00 0.00 62 1012.2
20260902223611 92 154 0.9 0.9 0.00 0.00 0.00 65 1012.4
20260902223109 93 150 1.7 2.6 0.00 0.00 0.00 63 1012.4
20260902222608 93 153 1.7 1.7 0.00 0.00 0.00 64 1012.3
20260902222107 93 143 2.6 5.2 0.00 0.00 0.00 63 1012.4
20260902221601 93 156 1.7 3.5 0.00 0.00 0.00 63 1012.6
20260902221056 93 152 1.7 2.6 0.00 0.00 0.00 61 1012.4
20260902220552 94 150 0.9 1.7 0.00 0.00 0.00 62 1012.8
20260902220046 93 139 2.6 2.6 0.00 0.00 0.00 66 1012.5
20260902215542 94 144 1.7 1.7 0.00 0.00 0.00 62 1012.4
20260902215037 95 153 3.5 5.2 0.00 0.00 0.00 62 1012.6
20260902214532 95 140 2.6 3.5 0.00 0.00 0.00 59 1012.7
20260902214031 94 130 0.9 1.7 0.00 0.00 0.00 61 1012.7
20260902213527 95 157 0.9 0.9 0.00 0.00 0.00 62 1012.7
20260902213026 94 159 0.9 0.9 0.00 0.00 0.00 64 1012.6
20260902212522 92 149 3.5 3.5 0.00 0.00 0.00 61 1012.6
20260902212018 93 159 0.9 0.9 0.00 0.00 0.00 64 1012.5
20260902211514 95 157 0.9 1.7 0.00 0.00 0.00 63 1012.7
20260902211008 94 147 3.5 3.5 0.00 0.00 0.00 61 1012.6
20260902210503 93 133 2.6 3.5 0.00 0.00 0.00 61 1012.6
20260902210001 94 149 0.0 0.9 0.00 0.00 0.00 65 1012.7
20260902205456 95 125 3.5 6.1 0.00 0.00 0.00 61 1012.8
20260902204952 94 154 0.0 0.0 0.00 0.00 0.00 64 1012.7
20260902204451 95 123 2.6 3.5 0.00 0.00 0.00 59 1013.1
20260902203947 95 110 6.1 7.0 0.00 0.00 0.00 59 1012.8
20260902203443 94 140 0.9 0.9 0.00 0.00 0.00 61 1013.0
20260902202941 94 147 2.6 2.6 0.00 0.00 0.00 60 1012.9
20260902202437 95 121 0.9 2.6 0.00 0.00 0.00 57 1013.0
20260902201934 94 160 2.6 2.6 0.00 0.00 0.00 59 1012.9
20260902201429 94 154 0.9 1.7 0.00 0.00 0.00 57 1013.0
20260902200928 95 149 1.7 2.6 0.00 0.00 0.00 59 1012.7
20260902200424 95 137 3.5 3.5 0.00 0.00 0.00 59 1013.1
20260902195919 95 157 1.7 3.5 0.00 0.00 0.00 59 1012.9
20260902195414 95 159 0.9 1.7 0.00 0.00 0.00 60 1013.0
20260902194909 94 156 0.9 0.9 0.00 0.00 0.00 58 1013.2
20260902194408 94 140 5.2 6.1 0.00 0.00 0.00 60 1013.2
20260902193903 94 133 1.7 2.6 0.00 0.00 0.00 62 1013.3
20260902193359 93 153 3.5 5.2 0.00 0.00 0.00 65 1013.4
20260902192858 94 137 4.3 5.2 0.00 0.00 0.00 58 1013.5
20260902192357 95 161 1.7 2.6 0.00 0.00 0.00 61 1013.4
20260902191851 94 161 0.9 1.7 0.00 0.00 0.00 59 1013.7
20260902191347 94 154 1.7 2.6 0.00 0.00 0.00 61 1013.6
20260902190842 94 155 2.6 2.6 0.00 0.00 0.00 60 1013.6
20260902190341 92 145 2.6 5.2 0.00 0.00 0.00 65 1013.8
20260902185837 92 173 5.2 7.0 0.00 0.00 0.00 62 1013.9
20260902185332 95 139 5.2 6.1 0.00 0.00 0.00 60 1013.7
20260902184828 93 161 1.7 1.7 0.00 0.00 0.00 64 1013.9
20260902184323 94 164 2.6 3.5 0.00 0.00 0.00 64 1013.9
20260902183819 93 156 3.5 5.2 0.00 0.00 0.00 63 1013.9
20260902183315 93 125 6.1 7.8 0.00 0.00 0.00 64 1013.8
20260902182811 92 156 1.7 1.7 0.00 0.00 0.00 67 1013.9
20260902182307 92 140 2.6 2.6 0.00 0.00 0.00 67 1013.9
20260902181803 94 162 0.9 0.9 0.00 0.00 0.00 61 1013.9
20260902181258 93 151 2.6 3.5 0.00 0.00 0.00 65 1014.1
20260902180752 91 154 1.7 2.6 0.00 0.00 0.00 67 1014.0
20260902180248 94 162 0.0 0.0 0.00 0.00 0.00 62 1014.0
20260902175743 93 164 1.7 2.6 0.00 0.00 0.00 64 1014.3
20260902175239 93 130 3.5 3.5 0.00 0.00 0.00 68 1014.3
20260902174734 93 132 3.5 3.5 0.00 0.00 0.00 67 1014.3
20260902174230 92 118 3.5 5.2 0.00 0.00 0.00 64 1014.7
20260902173726 92 175 1.7 3.5 0.00 0.00 0.00 64 1014.3
20260902173226 92 133 2.6 3.5 0.00 0.00 0.00 65 1014.6
20260902172720 91 148 2.6 3.5 0.00 0.00 0.00 65 1014.6
20260902172220 92 167 3.5 3.5 0.00 0.00 0.00 64 1014.7
20260902171715 92 138 0.0 0.0 0.00 0.00 0.00 63 1014.8
20260902171210 92 156 6.1 7.0 0.00 0.00 0.00 62 1014.6
20260902170707 91 157 1.7 1.7 0.00 0.00 0.00 66 1014.7
20260902170202 91 153 1.7 2.6 0.00 0.00 0.00 64 1014.8
20260902165656 92 127 5.2 7.0 0.00 0.00 0.00 64 1014.6
20260902165150 92 164 4.3 5.2 0.00 0.00 0.00 65 1014.7
20260902164646 92 126 5.2 6.1 0.00 0.00 0.00 65 1014.7
20260902164145 91 159 1.7 2.6 0.00 0.00 0.00 70 1014.9
20260902163640 91 146 3.5 3.5 0.00 0.00 0.00 68 1015.1
20260902163140 90 152 3.5 3.5 0.00 0.00 0.00 71 1014.9
20260902162638 91 130 4.3 5.2 0.00 0.00 0.00 67 1015.1
20260902162133 91 151 0.9 1.7 0.00 0.00 0.00 68 1014.9
20260902161628 91 152 0.9 0.9 0.00 0.00 0.00 69 1015.0
20260902161124 89 144 1.7 1.7 0.00 0.00 0.00 71 1014.7
20260902160620 89 135 2.6 2.6 0.00 0.00 0.00 72 1015.0
20260902160115 90 149 0.0 0.9 0.00 0.00 0.00 71 1015.0
20260902155613 90 164 2.6 2.6 0.00 0.00 0.00 69 1015.0
20260902155112 89 153 0.0 0.9 0.00 0.00 0.00 73 1014.9
20260902154608 89 146 4.3 7.0 0.00 0.00 0.00 71 1015.0
20260902154102 88 159 0.9 1.7 0.00 0.00 0.00 77 1015.0
20260902153601 88 150 2.6 2.6 0.00 0.00 0.00 73 1015.1
20260902153056 88 153 0.9 0.9 0.00 0.00 0.00 76 1015.1
20260902152553 88 155 0.9 1.7 0.00 0.00 0.00 75 1015.2
20260902152047 88 159 0.0 0.0 0.00 0.00 0.00 76 1015.1
20260902151544 88 162 0.0 0.9 0.00 0.00 0.00 74 1014.9
20260902151043 87 163 2.6 3.5 0.00 0.00 0.00 75 1015.2
20260902150538 87 164 1.7 2.6 0.00 0.00 0.00 77 1015.4
20260902150033 87 131 2.6 3.5 0.00 0.00 0.00 77 1015.3
20260902145523 86 157 0.9 1.7 0.00 0.00 0.00 77 1015.2
20260902145023 87 131 3.5 5.2 0.00 0.00 0.00 77 1015.4
20260902144520 87 148 0.0 0.0 0.00 0.00 0.00 79 1015.4
20260902144020 87 157 0.9 0.9 0.00 0.00 0.00 80 1015.3
20260902143515 86 156 0.9 1.7 0.00 0.00 0.00 80 1015.2
20260902143010 86 150 2.6 2.6 0.00 0.00 0.00 79 1015.4
20260902142506 85 157 0.9 1.7 0.00 0.00 0.00 80 1015.2
20260902142001 85 152 1.7 2.6 0.00 0.00 0.00 80 1015.3
20260902141455 84 162 0.9 1.7 0.00 0.00 0.00 80 1015.2
20260902140949 84 143 2.6 3.5 0.00 0.00 0.00 84 1015.6
20260902140445 84 152 0.9 1.7 0.00 0.00 0.00 83 1015.2
20260902135939 84 150 0.9 1.7 0.00 0.00 0.00 80 1015.3
20260902135435 84 163 0.0 0.0 0.00 0.00 0.00 83 1015.1
20260902134933 84 161 0.9 0.9 0.00 0.00 0.00 84 1015.3
20260902134430 83 167 0.0 0.0 0.00 0.00 0.00 85 1015.3
20260902133924 84 164 0.0 0.0 0.00 0.00 0.00 84 1015.4
20260902133419 82 170 0.9 0.9 0.00 0.00 0.00 88 1015.6
20260902132914 82 183 1.7 1.7 0.00 0.00 0.00 88 1015.2
20260902132409 82 170 0.9 0.9 0.00 0.00 0.00 86 1015.1
20260902131904 82 178 1.7 1.7 0.00 0.00 0.00 87 1015.1
20260902131401 82 168 0.9 1.7 0.00 0.00 0.00 86 1015.2
20260902130900 82 166 0.0 0.0 0.00 0.00 0.00 88 1015.1
20260902130356 81 164 0.0 0.0 0.00 0.00 0.00 88 1015.3
20260902125851 80 161 0.0 0.0 0.00 0.00 0.00 91 1015.2
20260902125347 78 167 0.0 0.0 0.00 0.00 0.00 93 1015.2
20260902124843 77 163 0.0 0.0 0.00 0.00 0.00 96 1015.1
20260902124339 75 163 0.0 0.0 0.00 0.00 0.00 99 1015.2
20260902123833 75 160 0.0 0.0 0.00 0.00 0.00 99 1015.2
20260902123330 74 162 0.0 0.0 0.00 0.00 0.00 99 1015.1
20260902122828 74 162 0.0 0.0 0.00 0.00 0.00 99 1015.1
20260902122325 73 164 0.0 0.0 0.00 0.00 0.00 99 1015.1
20260902121824 72 164 0.0 0.0 0.00 0.00 0.00 99 1015.1
20260902121319 72 164 0.0 0.0 0.00 0.00 0.00 99 1015.0
20260902120814 70 162 0.0 0.0 0.00 0.00 0.00 99 1015.1
20260902120311 70 162 0.0 0.0 0.00 0.00 0.00 99 1015.0
20260902115805 70 162 0.0 0.0 0.00 0.00 0.00 99 1014.9
20260902115306 69 163 0.0 0.0 0.00 0.00 0.00 99 1014.9
20260902114758 69 162 0.0 0.0 0.00 0.00 0.00 99 1015.0
20260902114253 68 162 0.0 0.0 0.00 0.00 0.00 99 1014.7
20260902113748 68 162 0.0 0.0 0.00 0.00 0.00 99 1014.6
20260902113243 68 162 0.0 0.0 0.00 0.00 0.00 99 1014.6
20260902112742 68 162 0.0 0.0 0.00 0.00 0.00 99 1014.6
20260902112240 68 162 0.0 0.0 0.00 0.00 0.00 99 1014.4
20260902111735 68 162 0.0 0.0 0.00 0.00 0.00 99 1014.5
20260902111231 68 162 0.0 0.0 0.00 0.00 0.00 99 1014.5
20260902110727 68 162 0.0 0.0 0.00 0.00 0.00 99 1014.5
20260902110222 68 162 0.0 0.0 0.00 0.00 0.00 99 1014.4
20260902105721 68 162 0.0 0.0 0.00 0.00 0.00 99 1014.5
20260902105216 68 162 0.0 0.0 0.00 0.00 0.00 99 1014.4
20260902104712 68 162 0.0 0.0 0.00 0.00 0.00 99 1014.5
20260902104208 68 162 0.0 0.0 0.00 0.00 0.00 99 1014.5
20260902103707 68 162 0.0 0.0 0.00 0.00 0.00 99 1014.6
20260902103202 68 162 0.0 0.0 0.00 0.00 0.00 99 1014.5
20260902102658 69 162 0.0 0.0 0.00 0.00 0.00 99 1014.5
20260902102155 68 162 0.0 0.0 0.00 0.00 0.00 99 1014.6
20260902101650 68 162 0.0 0.0 0.00 0.00 0.00 99 1014.6
20260902101150 68 162 0.0 0.0 0.00 0.00 0.00 99 1014.4
20260902100644 69 162 0.0 0.0 0.00 0.00 0.00 99 1014.4
20260902100139 69 162 0.0 0.0 0.00 0.00 0.00 99 1014.4
20260902095638 69 162 0.0 0.0 0.00 0.00 0.00 99 1014.5
20260902095138 69 162 0.0 0.0 0.00 0.00 0.00 99 1014.5
20260902094633 69 164 0.0 0.0 0.00 0.00 0.00 99 1014.3
20260902094130 69 163 0.0 0.0 0.00 0.00 0.00 99 1014.3
20260902093629 69 162 0.0 0.0 0.00 0.00 0.00 99 1014.5
20260902093124 69 162 0.0 0.0 0.00 0.00 0.00 99 1014.3
20260902092619 69 162 0.0 0.0 0.00 0.00 0.00 99 1014.4
20260902092114 69 165 0.0 0.0 0.00 0.00 0.00 99 1014.3
20260902091609 69 162 0.0 0.0 0.00 0.00 0.00 99 1014.2
20260902091105 69 162 0.0 0.0 0.00 0.00 0.00 99 1014.3
20260902090601 69 162 0.0 0.0 0.00 0.00 0.00 99 1014.2
20260902090059 69 162 0.0 0.0 0.00 0.00 0.00 99 1014.2
20260902085554 69 162 0.0 0.0 0.00 0.00 0.00 99 1014.1
20260902085049 69 162 0.0 0.0 0.00 0.00 0.00 99 1014.1
20260902084545 69 162 0.0 0.0 0.00 0.00 0.00 99 1013.9
20260902084041 69 162 0.0 0.0 0.00 0.00 0.00 99 1013.8
20260902083536 69 162 0.0 0.0 0.00 0.00 0.00 99 1013.8
20260902083036 69 162 0.0 0.0 0.00 0.00 0.00 99 1013.8
20260902082532 69 162 0.0 0.0 0.00 0.00 0.00 99 1013.9
20260902082028 69 160 0.0 0.0 0.00 0.00 0.00 99 1013.9
20260902081525 69 161 0.0 0.0 0.00 0.00 0.00 99 1013.7
20260902081024 69 161 0.0 0.0 0.00 0.00 0.00 99 1013.9
20260902080519 69 156 0.0 0.0 0.00 0.00 0.00 99 1013.7
20260902080016 69 161 0.0 0.0 0.00 0.00 0.00 99 1013.8
20260902075510 69 161 0.0 0.0 0.00 0.00 0.00 99 1013.7
20260902075007 68 161 0.0 0.0 0.00 0.00 0.00 99 1013.8
20260902074501 69 159 0.0 0.0 0.00 0.00 0.00 99 1013.6
20260902073955 69 160 0.0 0.0 0.00 0.00 0.00 99 1013.6
20260902073452 69 162 0.0 0.0 0.00 0.00 0.00 99 1013.7
20260902072948 70 162 0.0 0.0 0.00 0.00 0.00 99 1013.6
20260902072444 70 162 0.0 0.0 0.00 0.00 0.00 99 1013.7
20260902071940 70 162 0.0 0.0 0.00 0.00 0.00 99 1013.4
20260902071439 70 162 0.0 0.0 0.00 0.00 0.00 99 1013.6
20260902070936 70 162 0.0 0.0 0.00 0.00 0.00 99 1013.5
20260902070431 70 162 0.0 0.0 0.00 0.00 0.00 99 1013.5
20260902065930 71 162 0.0 0.0 0.00 0.00 0.00 99 1013.6
20260902065425 70 162 0.0 0.0 0.00 0.00 0.00 99 1013.9
20260902064921 70 162 0.0 0.0 0.00 0.00 0.00 99 1013.6
20260902064416 71 162 0.0 0.0 0.00 0.00 0.00 99 1013.8
20260902063911 70 162 0.0 0.0 0.00 0.00 0.00 99 1013.9
20260902063411 70 162 0.0 0.0 0.00 0.00 0.00 99 1013.7
20260902062906 70 162 0.0 0.0 0.00 0.00 0.00 99 1013.7
20260902062405 70 161 0.0 0.0 0.00 0.00 0.00 99 1013.8
20260902061905 70 161 0.0 0.0 0.00 0.00 0.00 99 1013.8
20260902061400 70 161 0.0 0.0 0.00 0.00 0.00 99 1013.6
20260902060857 70 161 0.0 0.0 0.00 0.00 0.00 99 1013.8
20260902060352 70 159 0.0 0.0 0.00 0.00 0.00 99 1013.6
20260902055848 70 160 0.0 0.0 0.00 0.00 0.00 99 1013.6
20260902055344 71 160 0.0 0.0 0.00 0.00 0.00 99 1013.8
20260902054839 71 161 0.0 0.0 0.00 0.00 0.00 99 1013.8
20260902054335 71 161 0.0 0.0 0.00 0.00 0.00 99 1013.7
20260902053830 71 160 0.0 0.0 0.00 0.00 0.00 99 1013.5
20260902053325 71 160 0.0 0.0 0.00 0.00 0.00 99 1013.7
20260902052823 71 161 0.0 0.0 0.00 0.00 0.00 99 1013.7
20260902052320 71 161 0.0 0.0 0.00 0.00 0.00 99 1013.7
20260902051814 71 160 0.0 0.0 0.00 0.00 0.00 99 1013.7
20260902051308 71 160 0.0 0.0 0.00 0.00 0.00 99 1013.8
20260902050803 71 160 0.0 0.0 0.00 0.00 0.00 99 1013.6
20260902050303 71 161 0.0 0.0 0.00 0.00 0.00 99 1013.7
20260902045757 71 161 0.0 0.0 0.00 0.00 0.00 99 1013.7
20260902045253 71 161 0.0 0.0 0.00 0.00 0.00 99 1013.8
20260902044749 72 161 0.0 0.0 0.00 0.00 0.00 99 1013.7
20260902044244 72 161 0.0 0.0 0.00 0.00 0.00 99 1013.6
20260902043739 72 160 0.0 0.0 0.00 0.00 0.00 99 1013.6
20260902043235 72 161 0.0 0.0 0.00 0.00 0.00 99 1013.7
20260902042734 72 161 0.0 0.0 0.00 0.00 0.00 99 1013.4
20260902042229 72 160 0.0 0.0 0.00 0.00 0.00 99 1013.9
20260902041724 72 160 0.0 0.0 0.00 0.00 0.00 99 1013.6
20260902041219 72 160 0.0 0.0 0.00 0.00 0.00 99 1013.7
20260902040718 72 161 0.0 0.0 0.00 0.00 0.00 99 1013.9
20260902040214 72 161 0.0 0.0 0.00 0.00 0.00 99 1013.7
20260902035712 72 161 0.0 0.0 0.00 0.00 0.00 99 1013.8
20260902035208 72 160 0.0 0.0 0.00 0.00 0.00 99 1013.8
20260902034707 72 160 0.0 0.0 0.00 0.00 0.00 99 1014.0
20260902034206 72 159 0.0 0.0 0.00 0.00 0.00 99 1013.9
20260902033704 72 161 0.0 0.0 0.00 0.00 0.00 99 1013.8
20260902033154 72 162 0.0 0.0 0.00 0.00 0.00 99 1013.7
20260902032652 73 161 0.0 0.0 0.00 0.00 0.00 99 1013.7
20260902032148 73 161 0.0 0.0 0.00 0.00 0.00 99 1013.7
20260902031642 73 161 0.0 0.0 0.00 0.00 0.00 99 1013.7
20260902031138 74 161 0.0 0.0 0.00 0.00 0.00 99 1013.5
20260902030634 74 162 0.0 0.0 0.00 0.00 0.00 98 1013.8
20260902030133 74 162 0.0 0.0 0.00 0.00 0.00 98 1013.8
20260902025633 74 162 0.0 0.0 0.00 0.00 0.00 98 1013.6
20260902025128 74 162 0.0 0.0 0.00 0.00 0.00 98 1013.7
20260902024623 74 162 0.0 0.0 0.00 0.00 0.00 99 1013.6
20260902024118 74 162 0.0 0.0 0.00 0.00 0.00 98 1013.7
20260902023614 74 162 0.0 0.0 0.00 0.00 0.00 98 1013.7
20260902023109 74 162 0.0 0.0 0.00 0.00 0.00 98 1013.6
20260902022608 75 161 0.0 0.0 0.00 0.00 0.00 97 1013.8
20260902022104 75 162 0.0 0.0 0.00 0.00 0.00 96 1013.7
20260902021559 76 162 0.0 0.0 0.00 0.00 0.00 95 1013.6
20260902021054 76 162 0.0 0.0 0.00 0.00 0.00 94 1013.5
20260902020550 77 163 0.0 0.0 0.00 0.00 0.00 93 1013.6
20260902020046 77 155 0.0 0.0 0.00 0.00 0.00 93 1013.4
20260902015541 77 165 0.0 0.0 0.00 0.00 0.00 92 1013.6
20260902015036 76 165 0.0 0.0 0.00 0.00 0.00 94 1013.5
20260902014532 77 165 0.0 0.0 0.00 0.00 0.00 94 1013.4
20260902014027 77 165 0.0 0.0 0.00 0.00 0.00 94 1013.4
20260902013522 77 166 0.0 0.0 0.00 0.00 0.00 94 1013.5
20260902013018 77 162 0.0 0.0 0.00 0.00 0.00 95 1013.5
20260902012513 77 161 0.0 0.0 0.00 0.00 0.00 95 1013.2
20260902012008 77 168 0.0 0.0 0.00 0.00 0.00 95 1013.3
20260902011504 77 164 0.0 0.0 0.00 0.00 0.00 94 1013.3